1528520401.04,23718,20.31,74150.3,16.65,-15.81,-16.55,0,*4C
1528520402.28,23719,20.31,74152.3,16.65,-15.85,-16.59,0,*45
1528520403.48,23720,20.31,74150.5,16.65,-15.71,-16.45,0,*49
1528520404.68,23721,20.31,74152.8,16.65,-15.67,-16.41,0,*4B
1528520405.91,23722,20.31,74152.8,16.65,-15.81,-16.55,0,*45
1528520407.1,23723,20.31,74154.3,16.65,-15.71,-16.45,0,*4A
1528520408.31,23724,20.31,74154.5,16.65,-15.67,-16.41,0,*4E
1528520409.54,23725,20.31,74152.5,16.65,-15.57,-16.41,0,*4C
1528520410.74,23726,20.31,74152.0,16.65,-15.53,-16.41,0,*4B
1528520411.96,23727,20.31,74152.8,16.65,-15.57,-16.45,0,*4A
1528520413.17,23728,20.31,74152.8,16.65,-15.67,-16.41,0,*42
1528520414.42,23729,20.31,74154.3,16.65,-15.43,-16.27,0,*45
1528520415.65,23730,20.31,74154.0,16.65,-15.29,-16.13,0,*46
1528520416.88,23731,20.31,74154.3,16.65,-15.29,-16.13,0,*47
1528520418.14,23732,20.31,74154.5,16.65,-15.39,-16.17,0,*41
1528520419.4,23733,20.31,74152.3,16.65,-15.39,-16.17,0,*40
1528520420.6,23734,20.31,74156.0,16.65,-15.67,-16.37,0,*4E
1528520421.83,23735,20.31,74150.3,16.65,-15.57,-16.41,0,*4D
1528520423.06,23736,20.31,74154.3,16.67,-15.63,-16.41,0,*4B
1528520424.29,23737,20.31,74152.0,16.67,-15.53,-16.37,0,*48
1528520425.52,23738,20.31,74152.0,16.67,-15.67,-16.37,0,*40
1528520426.73,23739,20.31,74148.3,16.65,-15.67,-16.41,0,*42
1528520427.96,23740,20.31,74152.0,16.67,-15.63,-16.41,0,*4A
1528520429.19,23741,20.31,74152.8,16.65,-15.57,-16.41,0,*4E
1528520430.45,23742,20.31,74152.3,16.65,-15.43,-16.17,0,*4B
1528520431.64,23743,20.31,74152.0,16.65,-15.67,-16.45,0,*4B
1528520432.9,23744,20.31,74154.5,16.65,-15.43,-16.13,0,*49
1528520434.1,23745,20.31,74154.5,16.65,-15.15,-15.99,0,*4A
1528520435.36,23746,20.31,74152.8,16.67,-14.93,-15.75,0,*46
1528520436.56,23747,20.31,74148.5,16.69,-15.15,-15.99,0,*44
1528520437.79,23748,20.31,74154.3,16.69,-15.29,-16.17,0,*41
1528520439.02,23749,20.31,74148.3,16.69,-15.49,-16.31,0,*42
1528520440.3,23750,20.31,74152.3,16.67,-15.81,-16.69,0,*4D
1528520441.56,23751,20.31,74152.0,16.67,-15.95,-16.69,0,*49
1528520442.79,23752,20.31,74154.8,16.67,-15.75,-16.55,0,*4B
1528520444.08,23753,20.31,74152.0,16.67,-15.89,-16.69,0,*46
1528520445.31,23754,20.31,74154.5,16.67,-15.63,-16.41,0,*4F
1528520446.55,23755,20.31,74150.5,16.67,-15.95,-16.79,0,*4C
1528520447.83,23756,20.31,74150.0,16.67,-15.89,-16.65,0,*4F
1528520449.1,23757,20.31,74154.5,16.67,-16.13,-16.83,0,*46
1528520450.35,23758,20.31,74152.8,16.67,-16.13,-16.93,0,*48
1528520451.58,23759,20.31,74152.8,16.65,-15.95,-16.69,0,*43
1528520452.81,23760,20.31,74152.8,16.65,-15.81,-16.59,0,*4F
1528520454.02,23761,20.31,74152.5,16.65,-15.95,-16.75,0,*45
1528520455.28,23762,20.31,74154.3,16.65,-16.17,-17.03,0,*4F
1528520456.51,23763,20.31,74154.0,16.65,-16.17,-16.89,0,*4D
1528520457.79,23764,20.31,74152.8,16.63,-16.31,-17.07,0,*4F
1528520459.04,23765,20.31,74152.0,16.63,-16.17,-16.79,0,*42
1528520460.29,23766,20.31,74152.5,16.63,-16.23,-16.93,0,*42
1528520461.49,23767,20.31,74152.5,16.61,-15.99,-16.79,0,*47
1528520462.74,23768,20.31,74154.5,16.63,-16.13,-16.89,0,*44
1528520464.0,23769,20.31,74150.8,16.61,-16.23,-17.03,0,*47
1528520465.23,23770,20.31,74150.8,16.61,-16.37,-17.21,0,*4A
1528520466.48,23771,20.31,74148.8,16.61,-16.23,-17.03,0,*4E
1528520467.71,23772,20.31,74152.3,16.61,-16.17,-16.93,0,*42
1528520468.96,23773,20.31,74154.8,16.59,-16.03,-16.65,0,*44
1528520470.22,23774,20.31,74148.8,16.59,-16.17,-16.97,0,*4B
1528520471.51,23775,20.31,74150.3,16.59,-16.27,-17.11,0,*46
1528520472.77,23776,20.31,74152.3,16.59,-16.23,-16.97,0,*4E
1528520474.01,23777,20.31,74152.3,16.55,-16.31,-16.89,0,*4F
1528520475.25,23778,20.31,74154.5,16.59,-16.03,-16.83,0,*47
1528520476.52,23779,20.31,74156.3,16.59,-16.09,-16.75,0,*45
1528520477.75,23780,20.31,74152.0,16.55,-15.99,-16.75,0,*45
1528520479.0,23781,20.31,74154.3,16.55,-16.27,-16.89,0,*41
1528520480.24,23782,20.31,74148.8,16.55,-15.81,-16.45,0,*4D
1528520481.48,23783,20.31,74152.8,16.59,-15.75,-16.41,0,*4F
1528520482.74,23784,20.31,74154.0,16.55,-15.39,-15.99,0,*4A
1528520484.02,23785,20.31,74152.0,16.55,-15.43,-16.13,0,*47
1528520485.29,23786,20.31,74152.3,16.55,-15.57,-16.27,0,*46
1528520486.53,23787,20.31,74152.5,16.55,-15.95,-16.41,0,*49
1528520487.78,23788,20.31,74152.8,16.59,-15.95,-16.69,0,*40
1528520489.02,23789,20.31,74150.3,16.55,-15.95,-16.55,0,*42
1528520490.24,23790,20.31,74154.0,16.55,-15.71,-16.45,0,*41
1528520491.47,23791,20.31,74154.3,16.59,-15.67,-16.41,0,*4F
1528520492.7,23792,20.31,74154.0,16.55,-15.99,-16.75,0,*46
1528520493.98,23793,20.31,74150.3,16.55,-15.85,-16.51,0,*4C
1528520495.2,23794,20.31,74152.5,16.55,-15.71,-16.45,0,*45
1528520496.48,23795,20.31,74150.5,16.55,-15.57,-16.27,0,*44
1528520497.76,23796,20.31,74152.3,16.55,-15.57,-16.27,0,*47
1528520498.99,23797,20.31,74152.8,16.55,-15.71,-16.41,0,*42
1528520500.24,23798,20.31,74148.5,16.55,-15.81,-16.55,0,*47
1528520501.49,23799,20.31,74150.8,16.55,-15.85,-16.45,0,*43
1528520502.74,23800,20.31,74154.5,16.55,-15.99,-16.69,0,*4F
1528520504.0,23801,20.31,74152.0,16.55,-16.09,-16.89,0,*4A
1528520505.24,23802,20.31,74152.0,16.53,-16.13,-16.75,0,*47
1528520506.46,23803,20.31,74150.3,16.53,-15.67,-16.27,0,*41
1528520507.69,23804,20.31,74150.8,16.53,-15.81,-16.41,0,*4E
1528520508.92,23805,20.31,74154.0,16.53,-15.67,-16.31,0,*40
1528520510.12,23806,20.31,74148.5,16.53,-15.71,-16.41,0,*43
1528520511.32,23807,20.31,74152.5,16.53,-15.71,-16.41,0,*42
1528520512.57,23808,20.31,74154.3,16.53,-15.57,-16.23,0,*4D
1528520513.8,23809,20.31,74152.8,16.53,-15.71,-16.31,0,*4B
1528520515.05,23810,20.31,74154.3,16.53,-15.57,-16.31,0,*47
1528520516.3,23811,20.31,74152.0,16.53,-15.43,-16.13,0,*43
1528520517.57,23812,20.31,74150.5,16.55,-16.09,-16.83,0,*42
1528520518.82,23813,20.31,74152.5,16.53,-16.31,-17.11,0,*44
1528520520.02,23814,20.31,74152.5,16.53,-15.95,-16.55,0,*4F
1528520521.28,23815,20.31,74152.0,16.53,-15.43,-16.09,0,*4C
1528520522.51,23816,20.31,74152.3,16.53,-16.13,-16.89,0,*41
1528520523.75,23817,20.31,74152.8,16.51,-15.99,-16.75,0,*40
1528520524.97,23818,20.31,74154.0,16.53,-15.71,-16.31,0,*4B
1528520526.24,23819,20.31,74156.8,16.51,-15.89,-16.59,0,*41
1528520527.47,23820,20.31,74152.0,16.53,-15.85,-16.59,0,*45
1528520528.76,23821,20.31,74152.0,16.51,-15.89,-16.51,0,*42
1528520530.02,23822,20.31,74154.3,16.51,-16.03,-16.65,0,*47
1528520531.27,23823,20.31,74152.3,16.51,-15.99,-16.51,0,*41
1528520532.47,23824,20.31,74152.0,16.49,-15.99,-16.59,0,*47
1528520533.7,23825,20.31,74150.3,16.49,-16.31,-16.93,0,*41
1528520534.92,23826,20.31,74154.3,16.49,-16.59,-17.35,0,*41
1528520536.15,23827,20.31,74152.3,16.49,-16.45,-17.21,0,*48
1528520537.42,23828,20.31,74152.0,16.47,-16.37,-17.07,0,*48
1528520538.68,23829,20.31,74152.3,16.47,-16.41,-17.11,0,*4F
1528520539.93,23830,20.31,74154.8,16.47,-16.31,-16.97,0,*4F
1528520541.19,23831,20.31,74156.0,16.47,-16.03,-16.69,0,*4E
1528520542.43,23832,20.31,74150.8,16.47,-15.95,-16.55,0,*4E
1528520543.69,23833,20.31,74150.8,16.47,-15.81,-16.41,0,*4F
1528520544.96,23834,20.31,74150.0,16.47,-16.41,-17.07,0,*44
1528520546.19,23835,20.31,74156.0,16.45,-15.53,-16.23,0,*40
1528520547.4,23836,20.31,74152.0,16.45,-15.99,-16.59,0,*48
1528520548.64,23837,20.31,74154.3,16.45,-16.23,-16.83,0,*4C
1528520549.84,23838,20.31,74156.0,16.45,-15.71,-16.45,0,*4D
1528520551.05,23839,20.31,74150.8,16.45,-15.71,-16.41,0,*48
1528520552.27,23840,20.31,74154.5,16.43,-16.31,-16.93,0,*48
1528520553.51,23841,20.31,74152.5,16.45,-16.45,-17.17,0,*41
1528520554.74,23842,20.31,74152.8,16.45,-15.85,-16.55,0,*4A
1528520556.0,23843,20.31,74152.3,16.43,-15.57,-16.27,0,*47
1528520557.21,23844,20.31,74150.5,16.45,-15.71,-16.37,0,*43
1528520558.44,23845,20.31,74152.8,16.43,-15.49,-16.17,0,*4D
1528520559.67,23846,20.31,74150.8,16.45,-15.81,-16.45,0,*4B
1528520560.9,23847,20.31,74152.3,16.45,-16.23,-16.89,0,*41
1528520562.14,23848,20.31,74148.5,16.43,-16.41,-17.03,0,*4F
1528520563.37,23849,20.31,74152.3,16.43,-15.89,-16.45,0,*4A
1528520564.59,23850,20.31,74154.8,16.43,-15.99,-16.51,0,*46
1528520565.87,23851,20.31,74152.3,16.41,-15.85,-16.51,0,*48
1528520567.13,23852,20.31,74154.5,16.41,-16.13,-16.89,0,*42
1528520568.37,23853,20.31,74156.0,16.43,-16.13,-16.75,0,*42
1528520569.61,23854,20.31,74154.8,16.43,-15.85,-16.41,0,*4E
1528520570.89,23855,20.31,74152.0,16.41,-16.27,-17.03,0,*41
1528520572.15,23856,20.31,74152.3,16.41,-16.45,-17.17,0,*43
1528520573.39,23857,20.31,74156.0,16.39,-16.51,-17.35,0,*48
1528520574.65,23858,20.31,74150.3,16.41,-16.65,-17.35,0,*4F
1528520575.9,23859,20.31,74152.0,16.39,-16.65,-17.35,0,*41
1528520577.13,23860,20.31,74152.0,16.39,-16.55,-17.25,0,*49
1528520578.41,23861,20.31,74148.5,16.37,-15.81,-16.51,0,*4E
1528520579.64,23862,20.31,74152.8,16.39,-16.23,-16.93,0,*46
1528520580.92,23863,20.31,74154.3,16.37,-16.51,-17.11,0,*47
1528520582.21,23864,20.31,74152.8,16.37,-16.09,-16.69,0,*43
1528520583.47,23865,20.31,74156.8,16.33,-16.41,-17.17,0,*42
1528520584.73,23866,20.31,74152.5,16.33,-16.27,-16.89,0,*47
1528520585.99,23867,20.31,74152.8,16.33,-16.23,-16.75,0,*41
1528520587.28,23868,20.31,74154.0,16.33,-16.51,-17.03,0,*4B
1528520588.55,23869,20.31,74152.0,16.33,-16.09,-16.59,0,*49
1528520589.75,23870,20.31,74152.8,16.31,-15.99,-16.59,0,*49
1528520590.99,23871,20.31,74152.8,16.31,-16.45,-17.03,0,*44
1528520592.22,23872,20.31,74150.8,16.31,-16.03,-16.65,0,*44
1528520593.45,23873,20.31,74150.8,16.31,-16.27,-16.93,0,*4A
1528520594.71,23874,20.31,74152.5,16.29,-16.31,-16.93,0,*43
1528520595.97,23875,20.31,74152.5,16.29,-16.45,-17.11,0,*4A
1528520597.2,23876,20.31,74154.5,16.29,-16.45,-16.97,0,*46
1528520598.46,23877,20.31,74150.8,16.29,-16.59,-17.21,0,*46
1528520599.7,23878,20.31,74152.8,16.29,-16.37,-16.93,0,*49
1528520600.96,23879,20.31,74154.5,16.29,-16.59,-17.21,0,*48
1528520602.22,23880,20.31,74150.8,16.27,-16.65,-17.41,0,*49
1528520603.49,23881,20.31,74154.5,16.27,-16.69,-17.25,0,*46
1528520604.72,23882,20.31,74150.5,16.23,-16.55,-17.17,0,*4F
1528520605.98,23883,20.31,74154.0,16.23,-17.03,-17.79,0,*44
1528520607.22,23884,20.31,74150.5,16.23,-16.83,-17.41,0,*41
1528520608.48,23885,20.31,74152.5,16.21,-16.59,-17.21,0,*43
1528520609.74,23886,20.31,74152.3,16.21,-16.79,-17.45,0,*40
1528520611.0,23887,20.31,74154.0,16.21,-16.55,-17.17,0,*48
1528520612.23,23888,20.31,74150.8,16.19,-16.27,-16.97,0,*40
1528520613.47,23889,20.31,74154.8,16.19,-16.23,-16.79,0,*45
1528520614.72,23890,20.31,74154.3,16.19,-16.09,-16.75,0,*49
1528520615.96,23891,20.31,74154.3,16.19,-16.17,-16.79,0,*4B
1528520617.2,23892,20.31,74154.3,16.19,-16.45,-17.11,0,*40
1528520618.41,23893,20.31,74154.3,16.19,-16.83,-17.49,0,*46
1528520619.67,23894,20.31,74156.0,16.17,-16.97,-17.59,0,*4B
1528520620.92,23895,20.31,74152.5,16.17,-17.11,-17.73,0,*4D
1528520622.16,23896,20.31,74154.5,16.15,-17.11,-17.73,0,*4C
1528520623.39,23897,20.31,74148.3,16.15,-16.89,-17.55,0,*49
1528520624.63,23898,20.31,74154.5,16.13,-16.75,-17.35,0,*45
1528520625.89,23899,20.31,74152.8,16.13,-16.03,-16.69,0,*4D
1528520627.13,23900,20.31,74154.3,16.13,-15.99,-16.59,0,*4F
1528520628.36,23901,20.31,74152.8,16.13,-16.03,-16.59,0,*4E
1528520629.63,23902,20.31,74150.8,16.13,-16.13,-16.75,0,*42
1528520630.9,23903,20.31,74152.0,16.13,-16.17,-16.75,0,*47
1528520632.17,23904,20.31,74152.8,16.13,-16.17,-16.83,0,*49
1528520633.45,23905,20.31,74152.3,16.13,-16.13,-16.69,0,*48
1528520634.65,23906,20.31,74152.8,16.11,-15.99,-16.59,0,*4B
1528520635.92,23907,20.31,74154.5,16.13,-16.13,-16.75,0,*47
1528520637.18,23908,20.31,74152.0,16.13,-15.89,-16.45,0,*4B
1528520638.46,23909,20.31,74154.3,16.13,-15.81,-16.31,0,*41
1528520639.72,23910,20.31,74150.5,16.13,-16.17,-16.83,0,*4C
1528520640.99,23911,20.31,74152.0,16.13,-15.89,-16.41,0,*47
1528520642.22,23912,20.31,74150.3,16.13,-16.03,-16.55,0,*40
1528520643.5,23913,20.31,74152.8,16.13,-15.81,-16.27,0,*4D
1528520644.76,23914,20.31,74148.8,16.13,-15.71,-16.27,0,*45
1528520646.02,23915,20.31,74150.0,16.13,-15.71,-16.13,0,*43
1528520647.29,23916,20.31,74154.8,16.13,-16.13,-16.59,0,*49
1528520648.54,23917,20.31,74154.5,16.11,-15.81,-16.31,0,*4C
1528520649.83,23918,20.31,74156.5,16.13,-15.39,-15.81,0,*4A
1528520651.07,23919,20.31,74152.0,16.15,-15.25,-15.81,0,*40
1528520652.33,23920,20.31,74152.5,16.15,-15.35,-15.81,0,*4B
1528520653.56,23921,20.31,74152.3,16.17,-15.25,-15.67,0,*41
1528520654.79,23922,20.31,74150.8,16.17,-15.49,-15.99,0,*49
1528520656.03,23923,20.31,74152.3,16.15,-15.39,-15.95,0,*41
1528520657.26,23924,20.31,74152.3,16.15,-15.95,-16.51,0,*4B
1528520658.47,23925,20.31,74152.0,16.15,-15.63,-15.99,0,*44
1528520659.71,23926,20.31,74152.5,16.15,-15.39,-15.75,0,*4A
1528520660.95,23927,20.31,74152.8,16.17,-15.21,-15.67,0,*43
1528520662.2,23928,20.31,74154.3,16.17,-15.21,-15.67,0,*4C
1528520663.43,23929,20.31,74152.8,16.17,-15.11,-15.63,0,*4A
1528520664.66,23930,20.31,74154.5,16.17,-15.11,-15.63,0,*42
1528520665.88,23931,20.31,74154.5,16.17,-15.11,-15.67,0,*47
1528520667.1,23932,20.31,74152.3,16.19,-15.15,-15.71,0,*49
1528520668.33,23933,20.31,74152.8,16.21,-15.15,-15.75,0,*47
1528520669.54,23934,20.31,74152.8,16.19,-15.49,-16.03,0,*40
1528520670.81,23935,20.31,74150.8,16.19,-15.35,-15.81,0,*43
1528520672.05,23936,20.31,74152.0,16.19,-15.29,-15.89,0,*45
1528520673.29,23937,20.31,74154.8,16.21,-15.25,-15.71,0,*44
1528520674.55,23938,20.31,74154.3,16.19,-15.35,-15.89,0,*46
1528520675.78,23939,20.31,74152.8,16.19,-15.63,-16.23,0,*47
1528520677.02,23940,20.31,74154.8,16.19,-15.49,-15.89,0,*42
1528520678.27,23941,20.31,74154.0,16.19,-15.29,-15.81,0,*4D
1528520679.48,23942,20.31,74154.3,16.19,-15.29,-15.75,0,*45
1528520680.7,23943,20.31,74154.5,16.19,-15.29,-15.75,0,*44
1528520681.92,23944,20.31,74152.5,16.19,-15.29,-15.71,0,*47
1528520683.18,23945,20.31,74152.5,16.21,-15.25,-15.85,0,*4A
1528520684.44,23946,20.31,74152.8,16.21,-15.39,-15.95,0,*45
1528520685.67,23947,20.31,74154.8,16.21,-15.53,-15.99,0,*44
1528520686.9,23948,20.31,74152.8,16.21,-15.53,-16.03,0,*4B
1528520688.14,23949,20.31,74152.0,16.19,-15.71,-16.09,0,*4B
1528520689.38,23950,20.31,74154.0,16.19,-15.89,-16.45,0,*4C
1528520690.64,23951,20.31,74152.0,16.21,-15.75,-16.31,0,*46
1528520691.87,23952,20.31,74156.0,16.19,-15.81,-16.45,0,*46
1528520693.1,23953,20.31,74154.5,16.19,-15.81,-16.37,0,*42
1528520694.34,23954,20.31,74152.8,16.19,-15.63,-16.09,0,*44
1528520695.58,23955,20.31,74152.5,16.19,-15.89,-16.37,0,*4C
1528520696.81,23956,20.31,74154.8,16.19,-16.97,-17.41,0,*43
1528520698.02,23957,20.31,74154.3,16.15,-16.89,-17.31,0,*46
1528520699.23,23958,20.31,74152.5,16.15,-15.95,-16.41,0,*41
1528520700.46,23959,20.31,74152.0,16.13,-16.89,-17.49,0,*41
1528520701.69,23960,20.31,74152.0,16.11,-16.45,-17.03,0,*47
1528520702.94,23961,20.31,74152.8,16.11,-15.89,-16.31,0,*45
1528520704.19,23962,20.31,74152.3,16.11,-15.85,-16.31,0,*4A
1528520705.45,23963,20.31,74154.0,16.13,-16.17,-16.75,0,*41
1528520706.67,23964,20.31,74152.3,16.11,-16.31,-16.93,0,*48
1528520707.91,23965,20.31,74152.0,16.11,-16.55,-17.07,0,*47
1528520709.12,23966,20.31,74152.8,16.11,-16.31,-16.89,0,*41
1528520710.34,23967,20.31,74152.5,16.07,-16.03,-16.51,0,*43
1528520711.54,23968,20.31,74152.3,16.07,-16.45,-16.97,0,*44
1528520712.79,23969,20.31,74152.5,16.07,-16.65,-17.11,0,*48
1528520713.99,23970,20.31,74152.8,16.07,-16.03,-16.59,0,*4D
1528520715.23,23971,20.31,74154.3,16.05,-16.27,-16.93,0,*4E
1528520716.48,23972,20.31,74148.8,16.05,-16.27,-16.79,0,*49
1528520717.71,23973,20.31,74150.5,16.03,-16.13,-16.55,0,*47
1528520718.93,23974,20.31,74150.3,16.03,-16.31,-16.97,0,*4E
1528520720.16,23975,20.31,74152.8,16.03,-16.55,-17.03,0,*41
1528520721.35,23976,20.31,74152.3,16.03,-15.95,-16.41,0,*4A
1528520722.6,23977,20.31,74152.5,16.01,-15.71,-16.17,0,*40
1528520723.85,23978,20.31,74148.8,16.03,-15.85,-16.27,0,*45
1528520725.08,23979,20.31,74152.8,16.03,-15.71,-16.17,0,*4C
1528520726.31,23980,20.31,74148.5,15.99,-16.09,-16.59,0,*4C
1528520727.52,23981,20.31,74154.8,16.01,-16.03,-16.45,0,*48
1528520728.76,23982,20.31,74154.5,16.01,-16.31,-16.97,0,*45
1528520729.99,23983,20.31,74154.3,15.99,-16.23,-16.79,0,*45
1528520731.24,23984,20.31,74152.8,15.99,-15.85,-16.23,0,*42
1528520732.52,23985,20.31,74154.5,15.97,-16.51,-17.07,0,*40
1528520733.75,23986,20.31,74154.5,15.99,-16.45,-17.03,0,*4C
1528520735.03,23987,20.31,74148.5,15.97,-17.07,-17.59,0,*4B
1528520736.27,23988,20.31,74152.0,15.97,-16.27,-16.79,0,*44
1528520737.52,23989,20.31,74152.0,15.95,-15.89,-16.27,0,*4B
1528520738.77,23990,20.31,74154.3,15.93,-15.85,-16.41,0,*49
1528520740.03,23991,20.31,74152.8,15.93,-16.69,-17.21,0,*4E
1528520741.28,23992,20.31,74152.0,15.93,-16.59,-17.11,0,*4D
1528520742.55,23993,20.31,74150.3,15.93,-16.69,-17.17,0,*49
1528520743.75,23994,20.31,74154.5,15.93,-15.99,-16.45,0,*44
1528520745.0,23995,20.31,74150.3,15.93,-16.41,-17.03,0,*40
1528520746.2,23996,20.31,74156.5,15.91,-16.45,-16.83,0,*4C
1528520747.43,23997,20.31,74156.3,15.91,-16.55,-17.11,0,*46
1528520748.63,23998,20.31,74154.3,15.91,-16.41,-16.83,0,*46
1528520749.88,23999,20.31,74152.8,15.89,-16.51,-16.93,0,*4E
1528520751.1,24000,20.31,74154.0,15.85,-16.83,-17.31,0,*4A
1528520752.37,24001,20.31,74152.0,15.85,-17.07,-17.59,0,*48
1528520753.6,24002,20.31,74152.5,15.83,-16.59,-17.11,0,*4B
1528520754.83,24003,20.31,74148.8,15.83,-16.45,-17.03,0,*44
1528520756.08,24004,20.31,74152.8,15.81,-16.09,-16.45,0,*4A
1528520757.35,24005,20.31,74152.0,15.81,-16.23,-16.69,0,*4D
1528520758.58,24006,20.31,74152.0,15.83,-15.67,-16.09,0,*49
1528520759.83,24007,20.31,74152.5,15.85,-15.53,-15.89,0,*42
1528520761.06,24008,20.31,74154.3,15.83,-15.67,-16.23,0,*4F
1528520762.29,24009,20.31,74152.8,15.83,-15.67,-16.09,0,*46
1528520763.54,24010,20.31,74152.0,15.85,-15.63,-16.09,0,*4C
1528520764.76,24011,20.31,74154.3,15.83,-16.09,-16.45,0,*4C
1528520765.99,24012,20.31,74154.8,15.83,-15.39,-15.95,0,*41
1528520767.25,24013,20.31,74154.5,15.83,-15.43,-15.85,0,*4C
1528520768.5,24014,20.31,74154.0,15.83,-15.43,-15.85,0,*4B
1528520769.75,24015,20.31,74148.3,15.85,-15.67,-16.13,0,*46
1528520770.99,24016,20.31,74154.3,15.85,-15.81,-16.37,0,*4B
1528520772.24,24017,20.31,74154.5,15.83,-15.89,-16.27,0,*45
1528520773.47,24018,20.31,74154.0,15.83,-15.71,-16.23,0,*49
1528520774.7,24019,20.31,74152.0,15.83,-16.27,-16.59,0,*45
1528520775.95,24020,20.31,74152.8,15.83,-15.57,-16.09,0,*4E
1528520777.15,24021,20.31,74152.0,15.83,-15.99,-16.55,0,*44
1528520778.4,24022,20.31,74152.5,15.81,-16.27,-16.83,0,*48
1528520779.62,24023,20.31,74152.8,15.81,-16.75,-17.31,0,*46
1528520780.84,24024,20.31,74154.5,15.79,-16.75,-17.31,0,*46
1528520782.06,24025,20.31,74154.8,15.79,-16.89,-17.31,0,*44
1528520783.27,24026,20.31,74152.0,15.77,-16.79,-17.35,0,*42
1528520784.49,24027,20.31,74150.3,15.77,-15.75,-16.31,0,*49
1528520785.7,24028,20.31,74152.5,15.77,-15.99,-16.51,0,*42
1528520786.92,24029,20.31,74152.5,15.77,-15.89,-16.45,0,*47
1528520788.19,24030,20.31,74148.5,15.75,-16.17,-16.65,0,*4B
1528520789.43,24031,20.31,74152.5,15.75,-16.93,-17.55,0,*44
1528520790.71,24032,20.31,74152.0,15.75,-17.07,-17.45,0,*4A
1528520791.93,24033,20.31,74152.5,15.75,-16.93,-17.35,0,*40
1528520793.16,24034,20.31,74152.8,15.73,-16.23,-16.59,0,*41
1528520794.39,24035,20.31,74154.3,15.73,-16.13,-16.59,0,*43
1528520795.65,24036,20.31,74152.5,15.71,-16.27,-16.75,0,*4B
1528520796.87,24037,20.31,74152.8,15.71,-16.93,-17.49,0,*4B
1528520798.12,24038,20.31,74150.8,15.73,-17.17,-17.63,0,*43
1528520799.4,24039,20.31,74154.0,15.71,-17.17,-17.63,0,*40
1528520800.65,24040,20.31,74154.3,15.67,-16.93,-17.55,0,*41
1528520801.85,24041,20.31,74150.3,15.69,-16.45,-16.79,0,*4A
1528520803.08,24042,20.31,74154.0,15.67,-15.95,-16.37,0,*43
1528520804.36,24043,20.31,74152.5,15.67,-16.17,-16.69,0,*40
1528520805.61,24044,20.31,74152.0,15.67,-16.79,-17.25,0,*46
1528520806.8,24045,20.31,74152.3,15.61,-15.99,-16.55,0,*4A
1528520808.05,24046,20.31,74150.3,15.63,-15.71,-16.23,0,*4C
1528520809.28,24047,20.31,74152.5,15.63,-15.53,-15.99,0,*4F
1528520810.51,24048,20.31,74154.3,15.67,-16.03,-16.55,0,*41
1528520811.79,24049,20.31,74150.3,15.63,-16.09,-16.51,0,*4A
1528520813.05,24050,20.31,74150.8,15.63,-15.25,-15.81,0,*41
1528520814.28,24051,20.31,74152.8,15.67,-15.29,-15.63,0,*44
1528520815.54,24052,20.31,74152.5,15.67,-15.29,-15.81,0,*4B
1528520816.79,24053,20.31,74152.8,15.67,-15.21,-15.75,0,*49
1528520818.05,24054,20.31,74150.8,15.67,-15.49,-15.89,0,*43
1528520819.28,24055,20.31,74150.0,15.67,-15.63,-16.03,0,*4B
1528520820.53,24056,20.31,74152.8,15.67,-15.57,-15.95,0,*43
1528520821.81,24057,20.31,74154.3,15.67,-15.43,-15.81,0,*42
1528520823.09,24058,20.31,74154.5,15.67,-15.57,-15.89,0,*40
1528520824.34,24059,20.31,74150.0,15.67,-15.21,-15.63,0,*44
1528520825.61,24060,20.31,74152.8,15.67,-15.01,-15.35,0,*4F
1528520826.88,24061,20.31,74152.8,15.67,-15.01,-15.35,0,*4E
1528520828.1,24062,20.31,74150.8,15.69,-15.01,-15.29,0,*4E
1528520829.3,24063,20.31,74154.0,15.69,-14.89,-15.15,0,*41
1528520830.53,24064,20.31,74150.5,15.69,-14.83,-15.11,0,*48
1528520831.75,24065,20.31,74152.0,15.69,-14.69,-15.01,0,*4C
1528520832.97,24066,20.31,74154.0,15.69,-14.97,-15.15,0,*4B
1528520834.24,24067,20.31,74152.3,15.71,-15.01,-15.43,0,*4E
1528520835.49,24068,20.31,74152.5,15.71,-14.75,-15.11,0,*44
1528520836.74,24069,20.31,74148.5,15.73,-14.51,-14.83,0,*4B
1528520837.97,24070,20.31,74154.3,15.73,-14.79,-15.11,0,*43
1528520839.17,24071,20.31,74152.0,15.73,-15.25,-15.53,0,*4C
1528520840.4,24072,20.31,74152.0,15.73,-15.67,-16.13,0,*4E
1528520841.62,24073,20.31,74152.0,15.73,-15.39,-15.67,0,*44
1528520842.82,24074,20.31,74152.8,15.73,-15.25,-15.71,0,*49
1528520844.04,24075,20.31,74150.3,15.71,-15.99,-16.41,0,*4D
1528520845.26,24076,20.31,74154.0,15.73,-15.49,-15.85,0,*4A
1528520846.51,24077,20.31,74154.5,15.71,-15.71,-16.13,0,*4E
1528520847.79,24078,20.31,74152.8,15.71,-16.17,-16.51,0,*44
1528520849.04,24079,20.31,74150.8,15.71,-15.63,-15.89,0,*43
1528520850.26,24080,20.31,74154.5,15.71,-15.71,-16.03,0,*47
1528520851.49,24081,20.31,74154.8,15.71,-15.25,-15.71,0,*41
1528520852.75,24082,20.31,74152.0,15.71,-15.63,-16.17,0,*43
1528520853.97,24083,20.31,74154.3,15.71,-15.71,-16.03,0,*44
1528520855.23,24084,20.31,74152.5,15.71,-15.53,-15.85,0,*4E
1528520856.48,24085,20.31,74150.8,15.71,-15.01,-15.29,0,*4E
1528520857.71,24086,20.31,74150.8,15.71,-14.89,-15.29,0,*4C
1528520858.99,24087,20.31,74150.8,15.71,-15.57,-15.89,0,*45
1528520860.21,24088,20.31,74152.8,15.73,-14.97,-15.49,0,*49
1528520861.46,24089,20.31,74152.5,15.71,-15.15,-15.57,0,*4E
1528520862.71,24090,20.31,74154.8,15.71,-15.71,-16.13,0,*47
1528520863.97,24091,20.31,74150.5,15.71,-15.75,-16.27,0,*45
1528520865.19,24092,20.31,74154.8,15.71,-15.53,-15.99,0,*44
1528520866.47,24093,20.31,74154.8,15.71,-15.43,-15.85,0,*49
1528520867.73,24094,20.31,74150.8,15.71,-15.75,-16.13,0,*47
1528520868.95,24095,20.31,74148.8,15.73,-15.35,-15.71,0,*47
1528520870.18,24096,20.31,74154.5,15.73,-15.49,-15.81,0,*40
1528520871.46,24097,20.31,74152.0,15.71,-15.43,-15.85,0,*4D
1528520872.71,24098,20.31,74148.8,15.71,-15.39,-15.71,0,*44
1528520873.96,24099,20.31,74152.0,15.71,-15.53,-15.89,0,*4E
1528520875.19,24100,20.31,74152.3,15.71,-15.71,-15.99,0,*4E
1528520876.44,24101,20.31,74152.0,15.71,-15.85,-16.41,0,*42
1528520877.67,24102,20.31,74148.8,15.71,-15.29,-15.71,0,*47
1528520878.89,24103,20.31,74150.8,15.71,-15.71,-16.03,0,*4D
1528520880.12,24104,20.31,74152.0,15.71,-15.29,-15.71,0,*41
1528520881.35,24105,20.31,74152.8,15.73,-15.07,-15.39,0,*42
1528520882.63,24106,20.31,74152.5,15.71,-14.83,-15.21,0,*47
1528520883.86,24107,20.31,74150.8,15.73,-14.93,-15.25,0,*41
1528520885.07,24108,20.31,74154.0,15.73,-14.97,-15.11,0,*4D
1528520886.32,24109,20.31,74154.0,15.73,-14.93,-15.21,0,*4B
1528520887.54,24110,20.31,74152.5,15.73,-15.35,-15.71,0,*4B
1528520888.75,24111,20.31,74152.0,15.73,-15.07,-15.49,0,*40
1528520889.97,24112,20.31,74154.3,15.73,-15.21,-15.53,0,*4C
1528520891.16,24113,20.31,74154.8,15.73,-15.67,-15.99,0,*49
1528520892.36,24114,20.31,74152.5,15.73,-15.11,-15.53,0,*49
1528520893.59,24115,20.31,74150.8,15.73,-15.85,-16.41,0,*45
1528520894.81,24116,20.31,74150.0,15.73,-15.43,-15.99,0,*4A
1528520896.01,24117,20.31,74154.8,15.73,-15.07,-15.53,0,*4D